| time (UTC) | temp C | wind direction | speed KPH | gust KPH | rain 1hr cm | rain 24hr cm | rain mn cm | humidity % | barometer mb |
| 20260506185009 | 18 | 199 | 4.8 | 14.5 | 0.00 | 0.00 | 0.00 | 37 | 1012.8 |
| 20260506184531 | 17 | 203 | 8.0 | 14.5 | 0.00 | 0.00 | 0.00 | 36 | 1012.7 |
| 20260506184011 | 17 | 174 | 6.4 | 14.5 | 0.00 | 0.00 | 0.00 | 41 | 1012.9 |
| 20260506183510 | 17 | 246 | 6.4 | 16.1 | 0.00 | 0.00 | 0.00 | 38 | 1012.8 |
| 20260506183028 | 17 | 165 | 8.0 | 17.7 | 0.00 | 0.00 | 0.00 | 42 | 1012.9 |
| 20260506182510 | 17 | 198 | 8.0 | 17.7 | 0.00 | 0.00 | 0.00 | 36 | 1013.0 |
| 20260506182015 | 17 | 266 | 4.8 | 12.9 | 0.00 | 0.00 | 0.00 | 39 | 1012.9 |
| 20260506181528 | 17 | 194 | 6.4 | 12.9 | 0.00 | 0.00 | 0.00 | 42 | 1013.0 |
| 20260506181012 | 16 | 102 | 6.4 | 9.7 | 0.00 | 0.00 | 0.00 | 43 | 1013.1 |
| 20260506180513 | 16 | 135 | 3.2 | 9.7 | 0.00 | 0.00 | 0.00 | 41 | 1013.0 |
| 20260506180028 | 16 | 98 | 1.6 | 9.7 | 0.00 | 0.00 | 0.00 | 41 | 1013.1 |
| 20260506175511 | 15 | 181 | 4.8 | 9.7 | 0.00 | 0.00 | 0.00 | 42 | 1013.2 |
| 20260506175011 | 16 | 88 | 4.8 | 8.0 | 0.00 | 0.00 | 0.00 | 44 | 1013.2 |
| 20260506174528 | 15 | 63 | 3.2 | 8.0 | 0.00 | 0.00 | 0.00 | 47 | 1013.3 |
| 20260506174013 | 15 | 108 | 3.2 | 6.4 | 0.00 | 0.00 | 0.00 | 43 | 1013.3 |
| 20260506173511 | 15 | 113 | 1.6 | 6.4 | 0.00 | 0.00 | 0.00 | 46 | 1013.4 |
| 20260506173039 | 14 | 88 | 3.2 | 6.4 | 0.00 | 0.00 | 0.00 | 45 | 1013.5 |
| 20260506172511 | 15 | 129 | 0.0 | 6.4 | 0.00 | 0.00 | 0.00 | 47 | 1013.5 |
| 20260506172010 | 14 | 145 | 0.0 | 6.4 | 0.00 | 0.00 | 0.00 | 49 | 1013.7 |
| 20260506171534 | 14 | 79 | 3.2 | 9.7 | 0.00 | 0.00 | 0.00 | 48 | 1013.7 |
| 20260506171010 | 13 | 0 | 1.6 | 9.7 | 0.00 | 0.00 | 0.00 | 47 | 1013.7 |
| 20260506170513 | 13 | 181 | 0.0 | 4.8 | 0.00 | 0.00 | 0.00 | 49 | 1013.9 |
| 20260506170028 | 13 | 166 | 1.6 | 4.8 | 0.00 | 0.00 | 0.00 | 51 | 1014.0 |
| 20260506165510 | 12 | 87 | 1.6 | 4.8 | 0.00 | 0.00 | 0.00 | 49 | 1014.0 |
| 20260506165010 | 13 | 0 | 0.0 | 6.4 | 0.00 | 0.00 | 0.00 | 51 | 1014.1 |
| 20260506164530 | 12 | 167 | 1.6 | 6.4 | 0.00 | 0.00 | 0.00 | 49 | 1014.1 |
| 20260506164009 | 12 | 191 | 1.6 | 4.8 | 0.00 | 0.00 | 0.00 | 52 | 1014.2 |
| 20260506163511 | 12 | 117 | 0.0 | 4.8 | 0.00 | 0.00 | 0.00 | 51 | 1014.2 |
| 20260506163042 | 12 | 0 | 0.0 | 4.8 | 0.00 | 0.00 | 0.00 | 53 | 1014.3 |
| 20260506162511 | 12 | 149 | 1.6 | 4.8 | 0.00 | 0.00 | 0.00 | 55 | 1014.3 |
| 20260506162014 | 12 | 135 | 0.0 | 3.2 | 0.00 | 0.00 | 0.00 | 54 | 1014.2 |
| 20260506161528 | 11 | 0 | 0.0 | 4.8 | 0.00 | 0.00 | 0.00 | 51 | 1014.3 |
| 20260506161011 | 11 | 0 | 1.6 | 4.8 | 0.00 | 0.00 | 0.00 | 56 | 1014.3 |
| 20260506160509 | 11 | 0 | 1.6 | 4.8 | 0.00 | 0.00 | 0.00 | 57 | 1014.3 |
| 20260506160032 | 11 | 0 | 0.0 | 4.8 | 0.00 | 0.00 | 0.00 | 57 | 1014.4 |
| 20260506155512 | 11 | 148 | 1.6 | 4.8 | 0.00 | 0.00 | 0.00 | 59 | 1014.5 |
| 20260506155009 | 11 | 0 | 0.0 | 3.2 | 0.00 | 0.00 | 0.00 | 57 | 1014.6 |
| 20260506154537 | 10 | 0 | 0.0 | 4.8 | 0.00 | 0.00 | 0.00 | 59 | 1014.6 |
| 20260506154010 | 10 | 160 | 1.6 | 4.8 | 0.00 | 0.00 | 0.00 | 61 | 1014.7 |
| 20260506153509 | 10 | 0 | 0.0 | 0.0 | 0.00 | 0.00 | 0.00 | 59 | 1014.7 |
| 20260506153032 | 10 | 0 | 0.0 | 0.0 | 0.00 | 0.00 | 0.00 | 61 | 1014.7 |
| 20260506152515 | 10 | 0 | 0.0 | 0.0 | 0.00 | 0.00 | 0.00 | 63 | 1014.8 |
| 20260506152014 | 9 | 0 | 0.0 | 0.0 | 0.00 | 0.00 | 0.00 | 60 | 1014.9 |
| 20260506151538 | 9 | 0 | 0.0 | 1.6 | 0.00 | 0.00 | 0.00 | 60 | 1014.9 |
| 20260506151009 | 9 | 0 | 0.0 | 1.6 | 0.00 | 0.00 | 0.00 | 61 | 1015.0 |
| 20260506150513 | 9 | 0 | 0.0 | 4.8 | 0.00 | 0.00 | 0.00 | 60 | 1015.0 |
| 20260506150028 | 9 | 153 | 1.6 | 4.8 | 0.00 | 0.00 | 0.00 | 63 | 1015.1 |
| 20260506145512 | 9 | 0 | 0.0 | 0.0 | 0.00 | 0.00 | 0.00 | 63 | 1015.1 |
| 20260506145011 | 8 | 0 | 0.0 | 0.0 | 0.00 | 0.00 | 0.00 | 63 | 1015.1 |
| 20260506144529 | 8 | 0 | 0.0 | 0.0 | 0.00 | 0.00 | 0.00 | 64 | 1015.1 |
| 20260506144010 | 8 | 0 | 0.0 | 0.0 | 0.00 | 0.00 | 0.00 | 66 | 1015.0 |
| 20260506143510 | 8 | 0 | 0.0 | 0.0 | 0.00 | 0.00 | 0.00 | 62 | 1015.0 |
| 20260506143032 | 8 | 0 | 0.0 | 0.0 | 0.00 | 0.00 | 0.00 | 65 | 1015.0 |
| 20260506142510 | 8 | 0 | 0.0 | 0.0 | 0.00 | 0.00 | 0.00 | 68 | 1015.0 |
| 20260506142010 | 7 | 0 | 0.0 | 0.0 | 0.00 | 0.00 | 0.00 | 73 | 1015.0 |
| 20260506141529 | 7 | 0 | 0.0 | 0.0 | 0.00 | 0.00 | 0.00 | 73 | 1015.0 |
| 20260506141016 | 6 | 0 | 0.0 | 0.0 | 0.00 | 0.00 | 0.00 | 76 | 1015.0 |
| 20260506140511 | 6 | 0 | 0.0 | 0.0 | 0.00 | 0.00 | 0.00 | 76 | 1014.9 |
| 20260506140033 | 6 | 0 | 0.0 | 0.0 | 0.00 | 0.00 | 0.00 | 76 | 1015.0 |
| 20260506135514 | 5 | 0 | 0.0 | 0.0 | 0.00 | 0.00 | 0.00 | 78 | 1015.0 |
| 20260506135009 | 5 | 0 | 0.0 | 0.0 | 0.00 | 0.00 | 0.00 | 80 | 1014.9 |
| 20260506134542 | 4 | 0 | 0.0 | 0.0 | 0.00 | 0.00 | 0.00 | 81 | 1014.9 |
| 20260506134017 | 4 | 0 | 0.0 | 0.0 | 0.00 | 0.00 | 0.00 | 81 | 1014.9 |
| 20260506133508 | 3 | 0 | 0.0 | 0.0 | 0.00 | 0.00 | 0.00 | 83 | 1015.0 |
| 20260506133029 | 3 | 0 | 0.0 | 0.0 | 0.00 | 0.00 | 0.00 | 86 | 1015.0 |
| 20260506132513 | 2 | 0 | 0.0 | 0.0 | 0.00 | 0.00 | 0.00 | 87 | 1014.9 |
| 20260506132010 | 2 | 0 | 0.0 | 0.0 | 0.00 | 0.00 | 0.00 | 88 | 1014.9 |
| 20260506131535 | 2 | 0 | 0.0 | 0.0 | 0.00 | 0.00 | 0.00 | 86 | 1014.9 |
| 20260506131013 | 2 | 0 | 0.0 | 0.0 | 0.00 | 0.00 | 0.00 | 88 | 1014.9 |
| 20260506130512 | 1 | 0 | 0.0 | 0.0 | 0.00 | 0.00 | 0.00 | 88 | 1015.0 |
| 20260506130030 | 1 | 0 | 0.0 | 0.0 | 0.00 | 0.00 | 0.00 | 88 | 1014.9 |
| 20260506125509 | 1 | 0 | 0.0 | 0.0 | 0.00 | 0.00 | 0.00 | 87 | 1014.9 |
| 20260506125007 | 1 | 0 | 0.0 | 0.0 | 0.00 | 0.00 | 0.00 | 85 | 1014.8 |
| 20260506124528 | 2 | 0 | 0.0 | 0.0 | 0.00 | 0.00 | 0.00 | 84 | 1014.9 |
| 20260506124009 | 2 | 0 | 0.0 | 0.0 | 0.00 | 0.00 | 0.00 | 84 | 1014.8 |
| 20260506123510 | 2 | 0 | 0.0 | 0.0 | 0.00 | 0.00 | 0.00 | 85 | 1014.8 |
| 20260506123028 | 2 | 0 | 0.0 | 0.0 | 0.00 | 0.00 | 0.00 | 87 | 1014.8 |
| 20260506122509 | 1 | 0 | 0.0 | 0.0 | 0.00 | 0.00 | 0.00 | 87 | 1014.7 |
| 20260506122010 | 2 | 0 | 0.0 | 0.0 | 0.00 | 0.00 | 0.00 | 86 | 1014.8 |
| 20260506121527 | 2 | 0 | 0.0 | 0.0 | 0.00 | 0.00 | 0.00 | 86 | 1014.6 |
| 20260506121009 | 2 | 0 | 0.0 | 0.0 | 0.00 | 0.00 | 0.00 | 82 | 1014.7 |
| 20260506120507 | 3 | 0 | 0.0 | 0.0 | 0.00 | 0.00 | 0.00 | 79 | 1014.6 |
| 20260506120028 | 3 | 0 | 0.0 | 0.0 | 0.00 | 0.00 | 0.00 | 82 | 1014.7 |
| 20260506115510 | 2 | 0 | 0.0 | 0.0 | 0.00 | 0.00 | 0.00 | 85 | 1014.6 |
| 20260506115009 | 2 | 0 | 0.0 | 0.0 | 0.00 | 0.00 | 0.00 | 85 | 1014.6 |
| 20260506114528 | 2 | 0 | 0.0 | 0.0 | 0.00 | 0.00 | 0.00 | 84 | 1014.6 |
| 20260506114007 | 2 | 0 | 0.0 | 0.0 | 0.00 | 0.00 | 0.00 | 85 | 1014.6 |
| 20260506113509 | 2 | 0 | 0.0 | 0.0 | 0.00 | 0.00 | 0.00 | 82 | 1014.7 |
| 20260506113026 | 2 | 0 | 0.0 | 0.0 | 0.00 | 0.00 | 0.00 | 83 | 1014.6 |
| 20260506112509 | 2 | 0 | 0.0 | 0.0 | 0.00 | 0.00 | 0.00 | 82 | 1014.7 |
| 20260506112009 | 3 | 0 | 0.0 | 0.0 | 0.00 | 0.00 | 0.00 | 78 | 1014.7 |
| 20260506111530 | 3 | 0 | 0.0 | 0.0 | 0.00 | 0.00 | 0.00 | 79 | 1014.7 |
| 20260506111009 | 3 | 0 | 0.0 | 0.0 | 0.00 | 0.00 | 0.00 | 81 | 1014.7 |
| 20260506110510 | 3 | 0 | 0.0 | 0.0 | 0.00 | 0.00 | 0.00 | 82 | 1014.7 |
| 20260506110030 | 3 | 0 | 0.0 | 0.0 | 0.00 | 0.00 | 0.00 | 80 | 1014.7 |
| 20260506105510 | 3 | 0 | 0.0 | 0.0 | 0.00 | 0.00 | 0.00 | 80 | 1014.8 |
| 20260506105013 | 3 | 0 | 0.0 | 0.0 | 0.00 | 0.00 | 0.00 | 79 | 1014.8 |
| 20260506104529 | 4 | 0 | 0.0 | 0.0 | 0.00 | 0.00 | 0.00 | 78 | 1014.6 |
| 20260506104012 | 3 | 0 | 0.0 | 0.0 | 0.00 | 0.00 | 0.00 | 80 | 1014.6 |
| 20260506103511 | 3 | 0 | 0.0 | 0.0 | 0.00 | 0.00 | 0.00 | 83 | 1014.6 |
| 20260506103027 | 3 | 0 | 0.0 | 0.0 | 0.00 | 0.00 | 0.00 | 79 | 1014.6 |
| 20260506102510 | 4 | 0 | 0.0 | 0.0 | 0.00 | 0.00 | 0.00 | 78 | 1014.5 |
| 20260506102009 | 4 | 0 | 0.0 | 0.0 | 0.00 | 0.00 | 0.00 | 76 | 1014.5 |
| 20260506101528 | 4 | 0 | 0.0 | 0.0 | 0.00 | 0.00 | 0.00 | 76 | 1014.4 |
| 20260506101010 | 4 | 0 | 0.0 | 0.0 | 0.00 | 0.00 | 0.00 | 79 | 1014.4 |
| 20260506100511 | 3 | 0 | 0.0 | 0.0 | 0.00 | 0.00 | 0.00 | 81 | 1014.4 |
| 20260506100031 | 3 | 0 | 0.0 | 0.0 | 0.00 | 0.00 | 0.00 | 81 | 1014.4 |
| 20260506095511 | 3 | 0 | 0.0 | 0.0 | 0.00 | 0.00 | 0.00 | 79 | 1014.4 |
| 20260506095011 | 3 | 0 | 0.0 | 0.0 | 0.00 | 0.00 | 0.00 | 79 | 1014.3 |
| 20260506094528 | 3 | 0 | 0.0 | 0.0 | 0.00 | 0.00 | 0.00 | 78 | 1014.4 |
| 20260506094010 | 5 | 0 | 0.0 | 0.0 | 0.00 | 0.00 | 0.00 | 76 | 1014.3 |
| 20260506093512 | 5 | 0 | 0.0 | 0.0 | 0.00 | 0.00 | 0.00 | 76 | 1014.3 |
| 20260506093029 | 5 | 0 | 0.0 | 0.0 | 0.00 | 0.00 | 0.00 | 75 | 1014.3 |
| 20260506092510 | 4 | 0 | 0.0 | 0.0 | 0.00 | 0.00 | 0.00 | 76 | 1014.4 |
| 20260506092011 | 5 | 0 | 0.0 | 0.0 | 0.00 | 0.00 | 0.00 | 76 | 1014.4 |
| 20260506091530 | 5 | 0 | 0.0 | 0.0 | 0.00 | 0.00 | 0.00 | 75 | 1014.4 |
| 20260506091015 | 4 | 0 | 0.0 | 0.0 | 0.00 | 0.00 | 0.00 | 76 | 1014.4 |
| 20260506090509 | 4 | 0 | 0.0 | 1.6 | 0.00 | 0.00 | 0.00 | 82 | 1014.4 |
| 20260506090029 | 4 | 0 | 0.0 | 3.2 | 0.00 | 0.00 | 0.00 | 78 | 1014.4 |
| 20260506085510 | 5 | 0 | 0.0 | 3.2 | 0.00 | 0.00 | 0.00 | 76 | 1014.4 |
| 20260506085009 | 5 | 0 | 0.0 | 3.2 | 0.00 | 0.00 | 0.00 | 73 | 1014.3 |
| 20260506084537 | 5 | 284 | 1.6 | 3.2 | 0.00 | 0.00 | 0.00 | 74 | 1014.2 |
| 20260506084010 | 5 | 0 | 0.0 | 3.2 | 0.00 | 0.00 | 0.00 | 74 | 1014.3 |
| 20260506083510 | 5 | 0 | 0.0 | 0.0 | 0.00 | 0.00 | 0.00 | 73 | 1014.3 |
| 20260506083032 | 5 | 0 | 0.0 | 1.6 | 0.00 | 0.00 | 0.00 | 73 | 1014.2 |
| 20260506082509 | 5 | 0 | 0.0 | 4.8 | 0.00 | 0.00 | 0.00 | 73 | 1014.3 |
| 20260506082011 | 5 | 277 | 1.6 | 4.8 | 0.00 | 0.00 | 0.00 | 73 | 1014.1 |
| 20260506081530 | 5 | 286 | 0.0 | 0.0 | 0.00 | 0.00 | 0.00 | 73 | 1014.1 |
| 20260506081013 | 5 | 0 | 0.0 | 1.6 | 0.00 | 0.00 | 0.00 | 74 | 1014.0 |
| 20260506080509 | 6 | 0 | 0.0 | 3.2 | 0.00 | 0.00 | 0.00 | 71 | 1014.0 |
| 20260506073514 | 6 | 0 | 0.0 | 4.8 | 0.00 | 0.00 | 0.00 | 71 | 1013.7 |
| 20260506073031 | 6 | 277 | 3.2 | 4.8 | 0.00 | 0.00 | 0.00 | 70 | 1013.6 |
| 20260506072510 | 6 | 0 | 0.0 | 0.0 | 0.00 | 0.00 | 0.00 | 71 | 1013.6 |
| 20260506072011 | 6 | 0 | 0.0 | 0.0 | 0.00 | 0.00 | 0.00 | 72 | 1013.5 |
| 20260506071531 | 7 | 0 | 0.0 | 0.0 | 0.00 | 0.00 | 0.00 | 69 | 1013.5 |
| 20260506071009 | 7 | 0 | 0.0 | 0.0 | 0.00 | 0.00 | 0.00 | 67 | 1013.5 |
| 20260506070510 | 7 | 0 | 0.0 | 0.0 | 0.00 | 0.00 | 0.00 | 67 | 1013.5 |
| 20260506062513 | 8 | 0 | 0.0 | 4.8 | 0.00 | 0.00 | 0.00 | 65 | 1013.3 |
| 20260506062013 | 8 | 302 | 3.2 | 4.8 | 0.00 | 0.00 | 0.00 | 65 | 1013.3 |
| 20260506061531 | 8 | 295 | 1.6 | 3.2 | 0.00 | 0.00 | 0.00 | 65 | 1013.2 |
| 20260506061010 | 8 | 295 | 1.6 | 3.2 | 0.00 | 0.00 | 0.00 | 62 | 1013.1 |
| 20260506060510 | 8 | 0 | 0.0 | 3.2 | 0.00 | 0.00 | 0.00 | 61 | 1013.0 |
| 20260506051009 | 9 | 341 | 0.0 | 3.2 | 0.00 | 0.00 | 0.00 | 60 | 1012.4 |
| 20260506050510 | 8 | 0 | 0.0 | 3.2 | 0.00 | 0.00 | 0.00 | 65 | 1012.4 |
| 20260506045011 | 10 | 0 | 0.0 | 0.0 | 0.00 | 0.00 | 0.00 | 63 | 1012.3 |
| 20260506044528 | 9 | 0 | 0.0 | 1.6 | 0.00 | 0.00 | 0.00 | 63 | 1012.3 |
| 20260506044009 | 10 | 0 | 0.0 | 4.8 | 0.00 | 0.00 | 0.00 | 66 | 1012.2 |
| 20260506043510 | 10 | 0 | 1.6 | 4.8 | 0.00 | 0.00 | 0.00 | 62 | 1012.1 |
| 20260506043031 | 10 | 283 | 3.2 | 4.8 | 0.00 | 0.00 | 0.00 | 61 | 1012.1 |
| 20260506042509 | 11 | 280 | 0.0 | 4.8 | 0.00 | 0.00 | 0.00 | 57 | 1012.0 |
| 20260506042010 | 11 | 1 | 0.0 | 4.8 | 0.00 | 0.00 | 0.00 | 55 | 1012.0 |
| 20260506041539 | 10 | 359 | 0.0 | 1.6 | 0.00 | 0.00 | 0.00 | 56 | 1012.0 |
| 20260506041008 | 10 | 0 | 0.0 | 3.2 | 0.00 | 0.00 | 0.00 | 63 | 1012.0 |
| 20260506040512 | 11 | 0 | 0.0 | 3.2 | 0.00 | 0.00 | 0.00 | 53 | 1011.8 |
| 20260506040032 | 11 | 0 | 0.0 | 0.0 | 0.00 | 0.00 | 0.00 | 53 | 1011.9 |
| 20260506035514 | 11 | 0 | 0.0 | 0.0 | 0.00 | 0.00 | 0.00 | 61 | 1011.8 |
| 20260506035014 | 10 | 0 | 0.0 | 4.8 | 0.00 | 0.00 | 0.00 | 67 | 1011.6 |
| 20260506034546 | 11 | 0 | 0.0 | 4.8 | 0.00 | 0.00 | 0.00 | 60 | 1011.4 |
| 20260506034013 | 11 | 0 | 0.0 | 4.8 | 0.00 | 0.00 | 0.00 | 58 | 1011.3 |
| 20260506033511 | 11 | 0 | 0.0 | 3.2 | 0.00 | 0.00 | 0.00 | 59 | 1011.3 |
| 20260506033030 | 11 | 0 | 0.0 | 3.2 | 0.00 | 0.00 | 0.00 | 59 | 1011.2 |
| 20260506032510 | 11 | 0 | 0.0 | 1.6 | 0.00 | 0.00 | 0.00 | 58 | 1011.2 |
| 20260506032011 | 12 | 0 | 0.0 | 3.2 | 0.00 | 0.00 | 0.00 | 56 | 1011.1 |
| 20260506031529 | 12 | 0 | 0.0 | 3.2 | 0.00 | 0.00 | 0.00 | 59 | 1011.0 |
| 20260506031011 | 12 | 0 | 0.0 | 3.2 | 0.00 | 0.00 | 0.00 | 57 | 1011.0 |
| 20260506030514 | 12 | 263 | 0.0 | 8.0 | 0.00 | 0.00 | 0.00 | 54 | 1011.1 |
| 20260506030029 | 13 | 304 | 1.6 | 8.0 | 0.00 | 0.00 | 0.00 | 55 | 1011.0 |
| 20260506025514 | 14 | 148 | 3.2 | 8.0 | 0.00 | 0.00 | 0.00 | 44 | 1010.9 |
| 20260506025011 | 15 | 352 | 4.8 | 8.0 | 0.00 | 0.00 | 0.00 | 45 | 1010.9 |
| 20260506024530 | 14 | 360 | 3.2 | 8.0 | 0.00 | 0.00 | 0.00 | 46 | 1010.9 |
| 20260506024008 | 14 | 244 | 1.6 | 6.4 | 0.00 | 0.00 | 0.00 | 47 | 1010.9 |
| 20260506023512 | 14 | 349 | 1.6 | 6.4 | 0.00 | 0.00 | 0.00 | 50 | 1010.9 |
| 20260506023030 | 14 | 333 | 3.2 | 6.4 | 0.00 | 0.00 | 0.00 | 49 | 1010.9 |
| 20260506022510 | 13 | 0 | 0.0 | 3.2 | 0.00 | 0.00 | 0.00 | 56 | 1010.8 |
| 20260506022012 | 13 | 0 | 0.0 | 0.0 | 0.00 | 0.00 | 0.00 | 54 | 1010.9 |
| 20260506021528 | 14 | 0 | 0.0 | 0.0 | 0.00 | 0.00 | 0.00 | 52 | 1010.9 |
| 20260506021010 | 14 | 0 | 0.0 | 0.0 | 0.00 | 0.00 | 0.00 | 49 | 1010.8 |
| 20260506020514 | 15 | 0 | 0.0 | 0.0 | 0.00 | 0.00 | 0.00 | 48 | 1010.8 |
| 20260506020028 | 15 | 0 | 0.0 | 0.0 | 0.00 | 0.00 | 0.00 | 46 | 1010.8 |
| 20260506015510 | 15 | 0 | 0.0 | 0.0 | 0.00 | 0.00 | 0.00 | 45 | 1010.8 |
| 20260506015012 | 15 | 0 | 0.0 | 0.0 | 0.00 | 0.00 | 0.00 | 49 | 1010.9 |
| 20260506014527 | 15 | 0 | 0.0 | 0.0 | 0.00 | 0.00 | 0.00 | 46 | 1010.8 |
| 20260506014009 | 15 | 0 | 0.0 | 0.0 | 0.00 | 0.00 | 0.00 | 43 | 1010.8 |
| 20260506013510 | 16 | 0 | 0.0 | 0.0 | 0.00 | 0.00 | 0.00 | 43 | 1010.8 |
| 20260506013041 | 16 | 0 | 0.0 | 0.0 | 0.00 | 0.00 | 0.00 | 44 | 1010.8 |
| 20260506012511 | 16 | 0 | 0.0 | 0.0 | 0.00 | 0.00 | 0.00 | 45 | 1010.9 |
| 20260506012012 | 16 | 0 | 0.0 | 0.0 | 0.00 | 0.00 | 0.00 | 43 | 1010.9 |
| 20260506011529 | 17 | 0 | 0.0 | 0.0 | 0.00 | 0.00 | 0.00 | 47 | 1010.9 |
| 20260506011012 | 18 | 0 | 0.0 | 0.0 | 0.00 | 0.00 | 0.00 | 40 | 1010.9 |
| 20260506010511 | 18 | 0 | 0.0 | 0.0 | 0.00 | 0.00 | 0.00 | 37 | 1010.9 |
| 20260506010033 | 19 | 0 | 0.0 | 0.0 | 0.00 | 0.00 | 0.00 | 38 | 1010.9 |
| 20260506005513 | 20 | 0 | 0.0 | 0.0 | 0.00 | 0.00 | 0.00 | 41 | 1011.0 |
| 20260506005010 | 20 | 0 | 0.0 | 0.0 | 0.00 | 0.00 | 0.00 | 40 | 1011.0 |
| 20260506004530 | 20 | 0 | 0.0 | 4.8 | 0.00 | 0.00 | 0.00 | 38 | 1010.9 |
| 20260506004011 | 20 | 0 | 0.0 | 4.8 | 0.00 | 0.00 | 0.00 | 31 | 1010.9 |
| 20260506003512 | 21 | 74 | 1.6 | 4.8 | 0.00 | 0.00 | 0.00 | 29 | 1011.0 |
| 20260506003028 | 21 | 0 | 0.0 | 4.8 | 0.00 | 0.00 | 0.00 | 25 | 1011.0 |
| 20260506002510 | 21 | 0 | 0.0 | 3.2 | 0.00 | 0.00 | 0.00 | 24 | 1011.1 |
| 20260506002013 | 20 | 140 | 1.6 | 6.4 | 0.00 | 0.00 | 0.00 | 25 | 1011.1 |
| 20260506001529 | 20 | 3 | 1.6 | 6.4 | 0.00 | 0.00 | 0.00 | 26 | 1011.2 |
| 20260506001010 | 20 | 0 | 1.6 | 11.3 | 0.00 | 0.00 | 0.00 | 32 | 1011.2 |
| 20260506000510 | 21 | 302 | 3.2 | 11.3 | 0.00 | 0.00 | 0.00 | 26 | 1011.3 |
| 20260506000031 | 20 | 118 | 4.8 | 11.3 | 0.00 | 0.00 | 0.00 | 30 | 1011.4 |
| 20260505235511 | 20 | 0 | 1.6 | 6.4 | 0.00 | 0.00 | 0.00 | 26 | 1011.4 |
| 20260505235010 | 20 | 0 | 1.6 | 9.7 | 0.00 | 0.00 | 0.00 | 28 | 1011.5 |
| 20260505234531 | 20 | 120 | 3.2 | 9.7 | 0.00 | 0.00 | 0.00 | 33 | 1011.5 |
| 20260505234009 | 20 | 110 | 4.8 | 9.7 | 0.00 | 0.00 | 0.00 | 26 | 1011.5 |
| 20260505233509 | 20 | 327 | 1.6 | 8.0 | 0.00 | 0.00 | 0.00 | 26 | 1011.7 |
| 20260505233029 | 21 | 309 | 1.6 | 8.0 | 0.00 | 0.00 | 0.00 | 29 | 1011.7 |
| 20260505232509 | 20 | 109 | 0.0 | 12.9 | 0.00 | 0.00 | 0.00 | 30 | 1011.8 |
| 20260505232011 | 20 | 118 | 3.2 | 14.5 | 0.00 | 0.00 | 0.00 | 28 | 1011.8 |
| 20260505231531 | 20 | 103 | 6.4 | 14.5 | 0.00 | 0.00 | 0.00 | 27 | 1011.9 |
| 20260505231010 | 20 | 114 | 6.4 | 12.9 | 0.00 | 0.00 | 0.00 | 30 | 1012.0 |
| 20260505230514 | 20 | 85 | 4.8 | 11.3 | 0.00 | 0.00 | 0.00 | 31 | 1012.0 |
| 20260505230030 | 20 | 309 | 3.2 | 14.5 | 0.00 | 0.00 | 0.00 | 26 | 1012.1 |
| 20260505225510 | 20 | 123 | 6.4 | 14.5 | 0.00 | 0.00 | 0.00 | 29 | 1012.1 |
| 20260505225012 | 20 | 144 | 6.4 | 14.5 | 0.00 | 0.00 | 0.00 | 28 | 1012.2 |
| 20260505224533 | 20 | 112 | 4.8 | 12.9 | 0.00 | 0.00 | 0.00 | 28 | 1012.3 |
| 20260505224012 | 20 | 143 | 4.8 | 16.1 | 0.00 | 0.00 | 0.00 | 26 | 1012.3 |
| 20260505223509 | 20 | 113 | 8.0 | 16.1 | 0.00 | 0.00 | 0.00 | 27 | 1012.4 |
| 20260505223037 | 20 | 108 | 6.4 | 16.1 | 0.00 | 0.00 | 0.00 | 32 | 1012.4 |
| 20260505222515 | 20 | 113 | 6.4 | 14.5 | 0.00 | 0.00 | 0.00 | 28 | 1012.5 |
| 20260505222011 | 20 | 124 | 3.2 | 14.5 | 0.00 | 0.00 | 0.00 | 27 | 1012.6 |
| 20260505221530 | 20 | 125 | 4.8 | 12.9 | 0.00 | 0.00 | 0.00 | 28 | 1012.7 |
| 20260505221013 | 20 | 105 | 4.8 | 12.9 | 0.00 | 0.00 | 0.00 | 25 | 1012.7 |
| 20260505220510 | 20 | 295 | 4.8 | 12.9 | 0.00 | 0.00 | 0.00 | 27 | 1012.8 |
| 20260505220047 | 20 | 307 | 3.2 | 11.3 | 0.00 | 0.00 | 0.00 | 26 | 1012.8 |
| 20260505215509 | 20 | 134 | 4.8 | 11.3 | 0.00 | 0.00 | 0.00 | 27 | 1012.8 |
| 20260505215009 | 20 | 274 | 6.4 | 11.3 | 0.00 | 0.00 | 0.00 | 29 | 1012.9 |
| 20260505214535 | 20 | 98 | 4.8 | 16.1 | 0.00 | 0.00 | 0.00 | 33 | 1013.0 |
| 20260505214010 | 20 | 87 | 4.8 | 16.1 | 0.00 | 0.00 | 0.00 | 25 | 1013.1 |
| 20260505213514 | 20 | 107 | 1.6 | 14.5 | 0.00 | 0.00 | 0.00 | 30 | 1013.2 |
| 20260505213034 | 20 | 115 | 4.8 | 16.1 | 0.00 | 0.00 | 0.00 | 26 | 1013.2 |
| 20260505212510 | 19 | 146 | 6.4 | 17.7 | 0.00 | 0.00 | 0.00 | 29 | 1013.3 |
| 20260505212010 | 18 | 0 | 4.8 | 17.7 | 0.00 | 0.00 | 0.00 | 29 | 1013.4 |
| 20260505211531 | 19 | 122 | 11.3 | 17.7 | 0.00 | 0.00 | 0.00 | 27 | 1013.4 |
| 20260505211012 | 19 | 176 | 8.0 | 19.3 | 0.00 | 0.00 | 0.00 | 38 | 1013.4 |
| 20260505210509 | 18 | 136 | 9.7 | 19.3 | 0.00 | 0.00 | 0.00 | 29 | 1013.5 |
| 20260505210033 | 19 | 125 | 9.7 | 20.9 | 0.00 | 0.00 | 0.00 | 29 | 1013.5 |
| 20260505205511 | 18 | 106 | 11.3 | 22.5 | 0.00 | 0.00 | 0.00 | 38 | 1013.5 |
| 20260505205014 | 18 | 130 | 8.0 | 22.5 | 0.00 | 0.00 | 0.00 | 29 | 1013.6 |
| 20260505204530 | 19 | 100 | 8.0 | 22.5 | 0.00 | 0.00 | 0.00 | 29 | 1013.6 |
| 20260505204011 | 18 | 269 | 4.8 | 17.7 | 0.00 | 0.00 | 0.00 | 28 | 1013.7 |
| 20260505203510 | 18 | 251 | 4.8 | 22.5 | 0.00 | 0.00 | 0.00 | 29 | 1013.8 |
| 20260505203028 | 18 | 105 | 6.4 | 24.1 | 0.00 | 0.00 | 0.00 | 31 | 1013.7 |
| 20260505202507 | 18 | 125 | 12.9 | 24.1 | 0.00 | 0.00 | 0.00 | 30 | 1013.7 |
| 20260505202011 | 18 | 97 | 3.2 | 19.3 | 0.00 | 0.00 | 0.00 | 35 | 1013.8 |
| 20260505201529 | 18 | 141 | 9.7 | 19.3 | 0.00 | 0.00 | 0.00 | 30 | 1013.9 |
| 20260505201010 | 18 | 130 | 6.4 | 17.7 | 0.00 | 0.00 | 0.00 | 35 | 1013.8 |
| 20260505200512 | 18 | 136 | 9.7 | 17.7 | 0.00 | 0.00 | 0.00 | 31 | 1014.0 |
| 20260505200036 | 18 | 123 | 4.8 | 16.1 | 0.00 | 0.00 | 0.00 | 31 | 1014.0 |
| 20260505195510 | 18 | 95 | 9.7 | 24.1 | 0.00 | 0.00 | 0.00 | 31 | 1014.1 |
| 20260505195015 | 18 | 139 | 11.3 | 24.1 | 0.00 | 0.00 | 0.00 | 31 | 1014.1 |
| 20260505194528 | 18 | 99 | 4.8 | 16.1 | 0.00 | 0.00 | 0.00 | 32 | 1014.1 |
| 20260505194010 | 17 | 92 | 4.8 | 12.9 | 0.00 | 0.00 | 0.00 | 30 | 1014.1 |
| 20260505193510 | 17 | 18 | 6.4 | 20.9 | 0.00 | 0.00 | 0.00 | 30 | 1014.3 |
| 20260505193028 | 17 | 125 | 3.2 | 20.9 | 0.00 | 0.00 | 0.00 | 32 | 1014.1 |
| 20260505192510 | 18 | 123 | 8.0 | 20.9 | 0.00 | 0.00 | 0.00 | 29 | 1014.2 |
| 20260505192011 | 17 | 0 | 3.2 | 16.1 | 0.00 | 0.00 | 0.00 | 31 | 1014.2 |
| 20260505191530 | 17 | 256 | 6.4 | 14.5 | 0.00 | 0.00 | 0.00 | 31 | 1014.2 |
| 20260505191014 | 17 | 154 | 3.2 | 12.9 | 0.00 | 0.00 | 0.00 | 30 | 1014.3 |
| 20260505190513 | 17 | 312 | 4.8 | 14.5 | 0.00 | 0.00 | 0.00 | 32 | 1014.3 |
| 20260505190029 | 17 | 135 | 3.2 | 17.7 | 0.00 | 0.00 | 0.00 | 33 | 1014.3 |
| 20260505185514 | 17 | 113 | 9.7 | 17.7 | 0.00 | 0.00 | 0.00 | 33 | 1014.5 |